CZ-3B DEB, 40850

Orbit data source: Space-Track

CZ-3B DEB, 40850 is space debris in HEO originally from a launch on Mon, 19 Dec 2011 UTC launched from the Xichang Space Center, China (XSC). Debris objects in space refer to the collection of defunct objects orbiting the Earth. Examples of debris include non-operational satellites, rocket bodies, and fragments generated from explosions, collisions, or faulty payload assembly.

Loading next visibility...
Identifier
40850, 2011-077AF
Orbit
HEO
Country
Flag of CNCN / PRC
Related business
Manufacturer
CALT
Mission
Spacecraft
Bus & Motor
Unknown
Mass
Unknown
Launch date (UTC)
2011-12-19 (14 years ago)
Launch vehicle
Unknown
Launch site
Xichang Space Center, China (XSC)
Object type
Payload
Rocket body
Debris
Shape & HBR
Unknown shape, 0.1 m
Radar Cross Section
Medium (>0.1 m² and <1 m²)

Expand to show TLE details & history
Last TLE update: 2 days ago

TLE from 2 days ago
0 CZ-3B DEB
1 40850U 11077AF  25292.46799050 -.00000141  00000-0  18136-4 0  9993
2 40850  25.8548 311.7701 7462990 140.3439 309.3553  1.92888100 74648
Epoch: 2025-10-19T11:13Z
TLE epoch observation values (Epoch: 2025-10-19T11:13:54.379Z)
Latitude
Longitude
115.14595°
Altitude
21,995.517 km
Speed
3.671 km/s
True Right ascension
20h 47m 13s
True Declination
0° 00' 00"
Sunlit
Object was in daylight at epoch
Visualization orbit readout
Latitude
Unknown
Longitude
Unknown
Altitude
Unknown
Speed
Unknown
Apparent Right ascension
Unknown
Apparent Declination
Unknown
Sunlit
N/A
Visualization observer readout
Local Sidereal Time
22:01:14
Azimuth
Unknown
Elevation
Unknown
Doppler factor
Unknown
Orbital elements
Apogee altitude
41,233.466 km
Perigee altitude
538.841 km
Semi-major axis
27,264.291 km
Eccentricity
0.7463
Inclination
25.8548°
RAAN
311.7701°
Arg. of periapsis
140.3439°
True anomaly
219.55803°
Mean anomaly
309.3553°
Eccentric anomaly
266.66781°
Mean motion
0.48212 °/min
Orbital period
746.71 mins
BSTAR
0.000018136
Loading maneuver chart data...
Computing Atmospheric mass density...
Loading historical data...
Loading historical data...
Loading historical data...
Loading historical data...
Loading historical data...
Loading historical data...
Loading historical data...

Documentation

Showing up to 5 results
|